[[{"header":{"parameterUnit":"m.s-1","parameterCategory":2,"la1":30.2992,"la2":30.254,"lo1":-89.0895,"lo2":-89.0443,"dy":0.0025,"dx":0.0025,"nx":19,"ny":19,"refTime":"2026-04-04T21:00:00:Z","depth":"0","parameterNumber":2,"parameterNumberName":"U-component_of_CURRENTS"},"data":[0,0,0,0.2218,0.222,0.2315,0.2315,0.2423,0.2424,0,0,0,0,0,0,0,0,0,0,0,0.2185,0.2186,0.2218,0.222,0.2315,0.2315,0.2423,0.2424,0,0,0,0,0,0,0,0,0,0,0,0.2185,0.2186,0.2187,0.2221,0.2315,0.2315,0.2422,0.2355,0,0,0,0,0,0,0,0,0,0,0.2266,0.2234,0.2186,0.2187,0.2221,0.2314,0.2315,0.2352,0.2359,0.2375,0,0.239,0,0.2408,0.243,0.243,0,0,0,0.2224,0.2228,0.2255,0.2187,0.2222,0.2314,0.2273,0.2356,0.2365,0.2384,0.2391,0.2396,0.241,0.2431,0.2431,0.2536,0.2536,0,0,0.2219,0.2203,0.2249,0.226,0.2247,0.227,0.2276,0.2361,0.2369,0.2392,0.2398,0.2412,0.2431,0.2432,0.2535,0.2536,0,0,0,0.2201,0.2199,0.2224,0.2255,0.2273,0.2273,0.228,0.2365,0.2374,0.24,0.2413,0.2432,0.2433,0.2535,0.2535,0.255,0,0,0,0.2198,0.2189,0.2221,0.2213,0.2271,0.2322,0.2281,0.2368,0.2379,0.2412,0.2432,0.2434,0.2534,0.2535,0.2549,0.2555,0,0,0,0.2181,0.2187,0.2198,0.2212,0.2251,0.2321,0.2335,0.2371,0.2386,0.2431,0.2434,0.2534,0.2535,0.2548,0.2553,0.2549,0,0,0,0.2161,0.2181,0.2198,0.2236,0.225,0.2342,0.2335,0.2405,0.2447,0.2432,0.2534,0.2535,0.2547,0.2552,0.2548,0.2496,0.2496,0,0,0.2174,0.2183,0.2208,0.2225,0.2303,0.2329,0.2412,0.2456,0.2463,0.2505,0.2508,0.2549,0.2553,0.2549,0.2553,0.2551,0,0,0,0.2206,0.222,0.2251,0.2298,0.2366,0.2423,0.2476,0.2488,0.2524,0.2492,0.2565,0.2567,0.2564,0.2531,0.253,0.2482,0.254,0.254,0.254,0.2184,0.2231,0.2278,0.2345,0.2411,0.2497,0.2537,0.2562,0.257,0.2579,0.2591,0.2615,0.2583,0.2581,0.2532,0.2605,0.2605,0.2605,0.2605,0.219,0.2207,0.2286,0.234,0.2421,0.2495,0.2586,0.2597,0.2627,0.2619,0.2614,0.2564,0.258,0.2529,0.2606,0.2606,0.2606,0.2606,0.2606,0.2147,0.2162,0.22,0.2284,0.2374,0.2483,0.2544,0.2611,0.2635,0.2649,0.2597,0.2596,0.2539,0.264,0.264,0.264,0.264,0.264,0.264,0.2071,0.2118,0.2136,0.2233,0.2278,0.2382,0.2513,0.2547,0.2595,0.2612,0.2611,0.2543,0.2625,0.261,0.264,0.264,0.264,0.264,0.264,0.2015,0.2026,0.2052,0.2081,0.2185,0.2211,0.2363,0.244,0.2496,0.2506,0.2503,0.2587,0.2572,0.2573,0.2556,0.2571,0.2571,0.2571,0.2571,0.1955,0.1972,0.1971,0.1992,0.2044,0.2128,0.2101,0.2208,0.2347,0.2385,0.2449,0.2426,0.2431,0.2407,0.2411,0.2391,0.2364,0.2364,0.2363,0.1918,0.1927,0.1894,0.1921,0.1968,0.1995,0.1923,0.1946,0.2181,0.2352,0.2394,0.2403,0.2367,0.2379,0.2341,0.2351,0.2318,0,0]},{"header":{"parameterUnit":"m.s-1","parameterCategory":2,"la1":30.2992,"la2":30.254,"lo1":-89.0895,"lo2":-89.0443,"dy":0.0025,"dx":0.0025,"nx":19,"ny":19,"refTime":"2026-04-04T21:00:00:Z","depth":"0","parameterNumber":3,"parameterNumberName":"V-component_of_CURRENTS"},"data":[0,0,0,0.0296,0.0296,0.0293,0.0293,0.0286,0.0286,0,0,0,0,0,0,0,0,0,0,0,0.0303,0.0303,0.0296,0.0296,0.0293,0.0293,0.0286,0.0286,0,0,0,0,0,0,0,0,0,0,0,0.0303,0.0303,0.0303,0.0296,0.0293,0.0293,0.0286,0.0289,0,0,0,0,0,0,0,0,0,0,0.0292,0.0297,0.0303,0.0303,0.0296,0.0293,0.0293,0.0289,0.0288,0.0286,0,0.0291,0,0.0285,0.0285,0.0285,0,0,0,0.0296,0.0297,0.0298,0.0303,0.0296,0.0293,0.0294,0.0289,0.0288,0.0285,0.0291,0.029,0.0285,0.0285,0.0285,0.0322,0.0322,0,0,0.0296,0.0299,0.0298,0.0298,0.0302,0.0294,0.0294,0.0288,0.029,0.0291,0.029,0.0285,0.0285,0.0285,0.0321,0.0322,0,0,0,0.0296,0.03,0.0301,0.0298,0.0296,0.0294,0.0294,0.029,0.0291,0.029,0.0285,0.0285,0.0285,0.0321,0.0321,0.0412,0,0,0,0.0296,0.03,0.0301,0.0302,0.0297,0.0293,0.0296,0.0292,0.0291,0.0285,0.0285,0.0285,0.032,0.0321,0.0409,0.0463,0,0,0,0.0302,0.03,0.0303,0.0303,0.0301,0.0293,0.0293,0.0292,0.0288,0.0285,0.0285,0.032,0.0321,0.0406,0.0457,0.0486,0,0,0,0.0302,0.0324,0.0303,0.0332,0.0301,0.0342,0.0293,0.0312,0.0317,0.0285,0.032,0.0321,0.0405,0.0453,0.0482,0.0541,0.0562,0,0,0.0334,0.0328,0.0348,0.0329,0.0385,0.0342,0.0399,0.0374,0.033,0.032,0.0321,0.041,0.0457,0.0485,0.0605,0.0625,0,0,0,0.0361,0.0379,0.0393,0.0417,0.043,0.0464,0.0432,0.0416,0.0405,0.0336,0.0407,0.0434,0.0449,0.0477,0.0492,0.0424,0.0326,0.0326,0.0326,0.0412,0.0425,0.0477,0.0503,0.0531,0.0544,0.056,0.0531,0.0475,0.0479,0.0505,0.0588,0.062,0.0632,0.0561,0.0494,0.0494,0.0494,0.0494,0.0484,0.052,0.0547,0.0599,0.0633,0.0679,0.0686,0.0654,0.0648,0.0587,0.0595,0.0569,0.0654,0.0572,0.05,0.0499,0.0498,0.0498,0.0497,0.0523,0.0546,0.0573,0.0657,0.0739,0.0774,0.0855,0.0824,0.0745,0.0759,0.0752,0.0751,0.0679,0.0751,0.0752,0.0752,0.0752,0.0753,0.0753,0.0553,0.0585,0.0648,0.0729,0.08,0.0904,0.0954,0.0964,0.0934,0.0868,0.0868,0.071,0.0666,0.0656,0.0759,0.0758,0.0757,0.0756,0.0756,0.061,0.0617,0.0717,0.0785,0.0951,0.1091,0.1121,0.1159,0.1123,0.1116,0.0899,0.091,0.0884,0.087,0.0865,0.1015,0.1015,0.1015,0.1015,0.0643,0.0656,0.0789,0.0912,0.1067,0.1184,0.1323,0.1331,0.117,0.1061,0.0966,0.0913,0.0906,0.0875,0.0861,0.0853,0.0996,0.0996,0.0996,0.0689,0.0726,0.0825,0.094,0.1123,0.1286,0.1425,0.1474,0.1208,0.0983,0.0862,0.0863,0.0767,0.0761,0.0693,0.068,0.0658,0,0]}],[{"header":{"parameterUnit":"m.s-1","parameterCategory":2,"la1":30.2992,"la2":30.254,"lo1":-89.0895,"lo2":-89.0443,"dy":0.0025,"dx":0.0025,"nx":19,"ny":19,"refTime":"2026-04-04T21:00:00:Z","depth":"2","parameterNumber":2,"parameterNumberName":"U-component_of_CURRENTS"},"data":[0,0,0,0.2026,0.2028,0.2092,0.2093,0.2188,0.2189,0,0,0,0,0,0,0,0,0,0,0,0.2008,0.2008,0.2026,0.2028,0.2092,0.2093,0.2188,0.2189,0,0,0,0,0,0,0,0,0,0,0,0.2008,0.2008,0.2009,0.2028,0.2092,0.2093,0.2188,0.2137,0,0,0,0,0,0,0,0,0,0,0.2073,0.2052,0.2008,0.2009,0.2028,0.2092,0.2093,0.2134,0.214,0.2161,0,0.2174,0,0.2181,0.2195,0.2196,0,0,0,0.2031,0.2047,0.2064,0.2009,0.2029,0.2092,0.2064,0.2137,0.2144,0.2169,0.2175,0.2178,0.2183,0.2196,0.2196,0.2298,0.2298,0,0,0.2028,0.2021,0.206,0.2068,0.2049,0.2062,0.2066,0.2141,0.215,0.2175,0.2181,0.2184,0.2196,0.2197,0.2297,0.2298,0,0,0,0.2015,0.2018,0.2033,0.2064,0.2074,0.2064,0.2069,0.2147,0.2152,0.2182,0.2186,0.2197,0.2198,0.2297,0.2298,0.2317,0,0,0,0.2013,0.2011,0.2032,0.2028,0.2073,0.2109,0.2072,0.2147,0.2155,0.2185,0.2197,0.2199,0.2297,0.2297,0.2316,0.2327,0,0,0,0.2004,0.2009,0.2018,0.2028,0.2054,0.2108,0.2118,0.2149,0.2158,0.2196,0.2199,0.2296,0.2297,0.2314,0.2324,0.2334,0,0,0,0.1993,0.2008,0.2018,0.2042,0.2053,0.2112,0.2117,0.2169,0.2204,0.2197,0.2297,0.2298,0.2314,0.2323,0.2333,0.2265,0.2266,0,0,0.2003,0.2009,0.2024,0.2034,0.208,0.2103,0.2164,0.221,0.2224,0.2272,0.2275,0.2316,0.2324,0.2334,0.232,0.2319,0,0,0,0.2021,0.2029,0.2047,0.2077,0.2122,0.2168,0.2212,0.2236,0.2285,0.2248,0.233,0.2335,0.234,0.2297,0.2297,0.2302,0.2302,0.2302,0.2302,0.2008,0.2036,0.2063,0.2103,0.2151,0.2223,0.2265,0.2306,0.2318,0.2342,0.2361,0.2397,0.2352,0.2351,0.2372,0.2372,0.2372,0.2372,0.2372,0.2005,0.2012,0.2068,0.2102,0.2167,0.223,0.2321,0.2344,0.24,0.2394,0.2397,0.2333,0.2351,0.2374,0.2374,0.2373,0.2373,0.2373,0.2373,0.1971,0.1979,0.2007,0.2067,0.2145,0.2236,0.2304,0.2377,0.2418,0.2439,0.2385,0.2384,0.2398,0.2439,0.244,0.244,0.244,0.244,0.244,0.1916,0.1947,0.196,0.2035,0.2073,0.2167,0.2295,0.2335,0.2388,0.2407,0.2406,0.242,0.2417,0.2403,0.2441,0.2441,0.2441,0.2441,0.2441,0.1867,0.188,0.1893,0.1917,0.2,0.2017,0.2161,0.2235,0.2301,0.231,0.2382,0.2383,0.2369,0.2368,0.2353,0.2376,0.2376,0.2376,0.2376,0.1821,0.1834,0.1824,0.1835,0.1874,0.1942,0.191,0.1979,0.2127,0.2173,0.2182,0.2138,0.2146,0.2116,0.2122,0.21,0.2058,0.2057,0.2056,0.179,0.1793,0.176,0.1773,0.1803,0.1818,0.1732,0.1675,0.1818,0.2041,0.2093,0.2361,0.232,0.2323,0.2296,0.2297,0.227,0,0]},{"header":{"parameterUnit":"m.s-1","parameterCategory":2,"la1":30.2992,"la2":30.254,"lo1":-89.0895,"lo2":-89.0443,"dy":0.0025,"dx":0.0025,"nx":19,"ny":19,"refTime":"2026-04-04T21:00:00:Z","depth":"2","parameterNumber":3,"parameterNumberName":"V-component_of_CURRENTS"},"data":[0,0,0,0.0167,0.0167,0.016,0.016,0.0153,0.0153,0,0,0,0,0,0,0,0,0,0,0,0.0175,0.0175,0.0167,0.0167,0.016,0.016,0.0153,0.0153,0,0,0,0,0,0,0,0,0,0,0,0.0175,0.0175,0.0175,0.0167,0.016,0.016,0.0153,0.0157,0,0,0,0,0,0,0,0,0,0,0.0164,0.017,0.0175,0.0175,0.0166,0.016,0.016,0.0157,0.0157,0.0157,0,0.0162,0,0.0155,0.0152,0.0152,0,0,0,0.0165,0.0171,0.0169,0.0175,0.0166,0.016,0.0162,0.0157,0.0157,0.0156,0.0161,0.0161,0.0155,0.0152,0.0152,0.0186,0.0186,0,0,0.0166,0.0171,0.017,0.0169,0.0172,0.0163,0.0162,0.0157,0.0159,0.0161,0.0161,0.0155,0.0152,0.0152,0.0185,0.0186,0,0,0,0.0168,0.0172,0.0171,0.017,0.0167,0.0162,0.0162,0.0159,0.016,0.016,0.0155,0.0152,0.0152,0.0185,0.0185,0.0266,0,0,0,0.0168,0.0173,0.0171,0.0174,0.0168,0.0162,0.0165,0.016,0.0159,0.0155,0.0152,0.0152,0.0184,0.0185,0.0262,0.0309,0,0,0,0.0174,0.0173,0.0175,0.0174,0.0171,0.0162,0.0162,0.016,0.0155,0.0152,0.0152,0.0184,0.0185,0.026,0.0304,0.0328,0,0,0,0.0176,0.0195,0.0175,0.02,0.0171,0.0201,0.0162,0.0175,0.0178,0.0152,0.0184,0.0185,0.0259,0.03,0.0325,0.0361,0.0378,0,0,0.0204,0.0199,0.0215,0.0197,0.0241,0.0202,0.0249,0.0227,0.019,0.0185,0.0186,0.0263,0.0303,0.0327,0.0416,0.0431,0,0,0,0.0227,0.0242,0.0252,0.027,0.0277,0.0304,0.0275,0.0263,0.0255,0.0195,0.026,0.0283,0.0295,0.0311,0.0323,0.019,0.019,0.019,0.019,0.0274,0.0282,0.0325,0.0342,0.0363,0.0371,0.0384,0.036,0.0314,0.0319,0.0345,0.0417,0.0435,0.0444,0.0335,0.0335,0.0336,0.0336,0.0336,0.0337,0.0368,0.0385,0.0427,0.0451,0.0489,0.0493,0.0467,0.0466,0.0415,0.0422,0.0392,0.0463,0.0342,0.0341,0.034,0.034,0.0339,0.0339,0.0374,0.0393,0.0414,0.0481,0.0547,0.0574,0.0643,0.0619,0.055,0.0564,0.0549,0.0547,0.0464,0.0558,0.0559,0.0559,0.0559,0.056,0.056,0.0405,0.043,0.0484,0.0549,0.0607,0.0694,0.0734,0.0741,0.0708,0.0648,0.0647,0.0492,0.0484,0.0476,0.0565,0.0564,0.0563,0.0563,0.0563,0.0458,0.0465,0.0549,0.0606,0.0743,0.0858,0.0881,0.09,0.0867,0.0853,0.0682,0.0677,0.0652,0.0641,0.0636,0.0761,0.0761,0.0761,0.0761,0.049,0.0501,0.0615,0.0716,0.0845,0.0939,0.1046,0.1024,0.0918,0.082,0.0818,0.0778,0.077,0.0747,0.0733,0.0728,0.0877,0.0877,0.0877,0.0533,0.0562,0.0647,0.0742,0.0891,0.1024,0.1125,0.1104,0.0928,0.0879,0.0813,0.0773,0.0706,0.0696,0.0647,0.0631,0.0617,0,0]}],[{"header":{"parameterUnit":"m.s-1","parameterCategory":2,"la1":30.2992,"la2":30.254,"lo1":-89.0895,"lo2":-89.0443,"dy":0.0025,"dx":0.0025,"nx":19,"ny":19,"refTime":"2026-04-04T21:00:00:Z","depth":"4","parameterNumber":2,"parameterNumberName":"U-component_of_CURRENTS"},"data":[0,0,0,0.1394,0.1395,0.1459,0.146,0.1561,0.1562,0,0,0,0,0,0,0,0,0,0,0,0.1384,0.1385,0.1394,0.1395,0.1459,0.146,0.1561,0.1562,0,0,0,0,0,0,0,0,0,0,0,0.1384,0.1385,0.1386,0.1395,0.1459,0.146,0.1561,0.1508,0,0,0,0,0,0,0,0,0,0,0.1443,0.1436,0.1385,0.1386,0.1396,0.1459,0.146,0.1505,0.1511,0.1537,0,0.1557,0,0.1557,0.1569,0.1569,0,0,0,0.1397,0.1431,0.1441,0.1386,0.1396,0.1459,0.1431,0.1508,0.1515,0.1545,0.1559,0.1562,0.1559,0.157,0.157,0.1689,0.169,0,0,0.1394,0.1401,0.1437,0.1446,0.1428,0.1429,0.1433,0.1512,0.153,0.1559,0.1564,0.156,0.157,0.1571,0.1689,0.1689,0,0,0,0.1382,0.1399,0.1407,0.1442,0.145,0.1431,0.1435,0.1527,0.1529,0.1565,0.1562,0.1571,0.1572,0.1688,0.1689,0.1718,0,0,0,0.138,0.1391,0.1406,0.1411,0.1449,0.1487,0.1449,0.1523,0.1532,0.1561,0.1571,0.1573,0.1688,0.1689,0.1716,0.1734,0,0,0,0.1378,0.1391,0.1401,0.1412,0.1436,0.1486,0.1492,0.1525,0.153,0.1569,0.1573,0.1687,0.1688,0.1714,0.1731,0.1767,0,0,0,0.1378,0.1392,0.1402,0.1418,0.1435,0.1462,0.1492,0.1529,0.1563,0.1571,0.1688,0.1689,0.1713,0.1729,0.1765,0.1538,0,0,0,0.1385,0.1394,0.1398,0.1408,0.1419,0.1453,0.1498,0.156,0.1592,0.1662,0.1665,0.1716,0.1731,0.1766,0.1614,0,0,0,0,0.1392,0.1398,0.1403,0.1419,0.144,0.1489,0.1537,0.1585,0.1674,0.1618,0.1734,0.1742,0.1763,0.1626,0.1695,0.1695,0.1695,0.1695,0.1694,0.1397,0.1399,0.1408,0.1421,0.1452,0.1525,0.1586,0.1667,0.1687,0.1743,0.1778,0.1843,0.1699,0.1789,0.1789,0.179,0.179,0.179,0.179,0.1382,0.1375,0.1409,0.1424,0.1482,0.1542,0.166,0.1711,0.1831,0.1827,0.1846,0.1681,0.1793,0.1793,0.1792,0.1792,0.1791,0.1791,0.1791,0.1357,0.1353,0.1384,0.142,0.1492,0.1575,0.1669,0.1779,0.1863,0.1906,0.1768,0.1873,0.1857,0.1921,0.1921,0.1922,0.1922,0.1922,0.1922,0.1312,0.1337,0.1359,0.1415,0.1451,0.1542,0.1693,0.1753,0.1853,0.1788,0.1925,0.1887,0.1883,0.1865,0.1926,0.1925,0.1925,0.1924,0.1924,0.1253,0.1292,0.1305,0.1339,0.1405,0.1443,0.1606,0.1656,0.1709,0.1697,0.1721,0.173,0.1702,0.1703,0.1677,0.1684,0.1682,0.1679,0,0.1218,0.1235,0.1246,0.1262,0.128,0.1372,0.1374,0.1459,0.155,0.1502,0.1722,0.1748,0.1753,0.1719,0.1716,0.1684,0,0,0,0.1181,0.1191,0.1175,0.1199,0.1199,0.1246,0.1363,0.1344,0.1536,0.1506,0.1612,0.1629,0.1793,0.1938,0.1917,0.1911,0.1882,0,0]},{"header":{"parameterUnit":"m.s-1","parameterCategory":2,"la1":30.2992,"la2":30.254,"lo1":-89.0895,"lo2":-89.0443,"dy":0.0025,"dx":0.0025,"nx":19,"ny":19,"refTime":"2026-04-04T21:00:00:Z","depth":"4","parameterNumber":3,"parameterNumberName":"V-component_of_CURRENTS"},"data":[0,0,0,0.0134,0.0134,0.0144,0.0144,0.0154,0.0154,0,0,0,0,0,0,0,0,0,0,0,0.0135,0.0135,0.0134,0.0134,0.0144,0.0144,0.0154,0.0154,0,0,0,0,0,0,0,0,0,0,0,0.0135,0.0135,0.0135,0.0134,0.0144,0.0144,0.0154,0.0147,0,0,0,0,0,0,0,0,0,0,0.0138,0.0139,0.0135,0.0135,0.0134,0.0144,0.0144,0.0147,0.0148,0.0148,0,0.0154,0,0.0152,0.0155,0.0155,0,0,0,0.0135,0.0139,0.014,0.0135,0.0134,0.0144,0.014,0.0148,0.0148,0.0149,0.0154,0.0154,0.0152,0.0155,0.0155,0.018,0.018,0,0,0.0134,0.0137,0.014,0.0141,0.0142,0.0139,0.014,0.0148,0.0151,0.0154,0.0154,0.0152,0.0155,0.0155,0.018,0.018,0,0,0,0.0132,0.0136,0.0138,0.0141,0.0142,0.014,0.014,0.0151,0.0152,0.0154,0.0152,0.0155,0.0155,0.0179,0.018,0.0236,0,0,0,0.0131,0.0135,0.0138,0.014,0.0142,0.0147,0.0144,0.0151,0.0152,0.0152,0.0155,0.0155,0.0179,0.018,0.0234,0.0267,0,0,0,0.0133,0.0135,0.0137,0.014,0.0143,0.0147,0.0148,0.0152,0.0151,0.0155,0.0155,0.0179,0.0179,0.0232,0.0263,0.0276,0,0,0,0.0133,0.0149,0.0138,0.0159,0.0143,0.0174,0.0148,0.0167,0.0175,0.0155,0.0179,0.018,0.0232,0.0261,0.0274,0.0274,0,0,0,0.0154,0.0152,0.0166,0.0156,0.0196,0.0173,0.0212,0.0205,0.018,0.0176,0.0176,0.0235,0.0263,0.0276,0.0304,0,0,0,0,0.0173,0.0185,0.0197,0.0215,0.0228,0.0251,0.0239,0.0229,0.0225,0.0186,0.0229,0.0245,0.0252,0.0245,0.0182,0.0182,0.0182,0.0182,0.0182,0.0205,0.0215,0.0251,0.027,0.0291,0.0304,0.0314,0.0295,0.0267,0.0267,0.0287,0.0331,0.0327,0.0277,0.0277,0.0277,0.0278,0.0278,0.0278,0.025,0.0273,0.0292,0.0329,0.0353,0.0386,0.0387,0.0369,0.0365,0.0331,0.0333,0.03,0.0283,0.0282,0.0281,0.0281,0.028,0.028,0.028,0.0273,0.0288,0.0309,0.0366,0.042,0.0444,0.049,0.0473,0.0423,0.0432,0.0404,0.0366,0.0366,0.0427,0.0427,0.0428,0.0428,0.0428,0.0428,0.0289,0.0313,0.0356,0.0412,0.046,0.0524,0.0554,0.0552,0.0512,0.0474,0.0448,0.0381,0.0377,0.0373,0.0431,0.0431,0.043,0.043,0.043,0.0319,0.0331,0.0395,0.0442,0.0548,0.0593,0.0624,0.0605,0.0594,0.0558,0.0484,0.048,0.0457,0.0451,0.0449,0.0532,0.0532,0.0532,0,0.0337,0.0348,0.0434,0.0509,0.0593,0.0636,0.065,0.0643,0.0578,0.0563,0.0575,0.0492,0.0489,0.0462,0.0457,0.0455,0,0,0,0.0361,0.0384,0.0443,0.0516,0.061,0.064,0.0655,0.0634,0.0592,0.0584,0.0538,0.0536,0.0503,0.0441,0.0398,0.0392,0.0384,0,0]}]]